STARLINK-36876

Last updated on Tue Mar 24 2026 00:02:05 GMT+0000 (Coordinated Universal Time)

1 67902U 26035Z 26082.50003471 .00026105 00000+0 17555-3 0 9997 2 67902 97.2854 15.6676 0001428 93.9882 253.0600 15.75164383 5987
UTC large
Height (km)
Speed (km/s)
/
Latitude / Longitude
Inclination (degrees)
Orbital Period (minutes)
Azimuth
Elevation
Range (km)
Doppler Factor

Next 0 passes for location: London (51.5072 / 0.1276)

Sorry there are no passes over London.